sat.trackr.live / text

‹ back to catalog

STARLINK-4565

NORAD 53562 · 2022-101AM

PAYLOAD ACTIVE UNKNOWN

§ Identity

Operator
Country
US
Launch date
2022-08-19
Launch site
AFETR
Launch vehicle
Mass (kg)
RCS (m²)

Purposes: comms

External: N2YO · Heavens-Above · Gunter

§ Orbital elements

Epoch: 2026-09-19T23:37:15.920256Z

Period
93.85 min
Inclination
53.1578°
Eccentricity
0.0001239
Mean motion
15.34391268 rev/d
Perigee alt
461.9 km
Apogee alt
463.6 km
Semi-major
6,840.9 km
B*
3.1508e-5
RAAN
246.0502°
Arg perigee
98.0172°
Mean anomaly
262.0971°
Rev number
22,665

§ Raw data

STARLINK-45651 53562U 22101AM  26262.98421204  .00000688  00000+0  31508-4 0  99972 53562  53.1578 246.0502 0001239  98.0172 262.0971 15.34391268226653

JSON: /api/v1/satellites/53562 · /tle

For live sub-satellite position, see the globe view (requires WebGL).

§ Visibility from observer

Set your observer location to see the next 7 days of passes ≥ 10°. The values pass through the URL so the page stays shareable.

No JS? Fill the form by hand. The geolocation button needs JavaScript.